Overview Statistics Trail Chart Weather Telemetry Raw packets
 

This is the latest recevied weather packets stored in our database for station/object W7BTL. If no packets are shown the sender has not sent any weather packets the latest 10 day(s).

<< 102 103 104 105 106 107 108 >>
Time Temp. Humidity Pressure Rain* Wind** Luminosity Snow
1787885874 26.67° C 64% 1008.6 hPa 0 mm - 0 W/m² -
1787885573 27.22° C 64% 1008.7 hPa 0 mm - 0 W/m² -
1787885271 27.22° C 65% 1008.7 hPa 0 mm - 0 W/m² -
1787884967 27.22° C 66% 1008.6 hPa 0 mm - 0 W/m² -
1787884667 27.22° C 65% 1008.4 hPa 0 mm - 0 W/m² -
1787884363 27.22° C 67% 1008.7 hPa 0 mm - 1 W/m² -
1787884063 27.22° C 68% 1008.7 hPa 0 mm - 2 W/m² -
1787883758 27.22° C 69% 1008.6 hPa 0 mm - 3 W/m² -
1787883454 27.78° C 68% 1008.7 hPa 0 mm - 5 W/m² -
1787883157 27.78° C 69% 1008.5 hPa 0 mm - 8 W/m² -
1787882848 27.78° C 69% 1008.5 hPa 0 mm - 11 W/m² -
1787882545 27.78° C 68% 1008.6 hPa 0 mm - 16 W/m² -
1787882241 27.78° C 68% 1008.4 hPa 0 mm - 22 W/m² -
1787881635 28.33° C 64% 1008.4 hPa 0 mm - 33 W/m² -
1787881332 28.33° C 64% 1008.5 hPa 0 mm - 38 W/m² -
1787881027 28.89° C 64% 1008.6 hPa 0 mm - 41 W/m² -
1787880721 28.89° C 65% 1008.7 hPa 0 mm - 44 W/m² -
1787880420 29.44° C 63% 1008.6 hPa 0 mm - 50 W/m² -
1787880115 30° C 61% 1008.6 hPa 0 mm - 59 W/m² -
1787879809 28.89° C 61% 1008.7 hPa 0 mm - 98 W/m² -
1787879505 28.89° C 62% 1008.5 hPa 0 mm - 53 W/m² -
1787879200 29.44° C 61% 1008.6 hPa 0 mm - 57 W/m² -
1787878898 29.44° C 62% 1008.6 hPa 0 mm - 66 W/m² -
1787878596 29.44° C 61% 1008.7 hPa 0 mm - 84 W/m² -
1787878291 30° C 60% 1008.5 hPa 0 mm - 93 W/m² -

* Rain latest hour (hover to see other rain measurements)
** Current wind speed in m/s (hover to see current wind gust speed)